TimeCST,TemperatureF,Dew PointF,Humidity,Sea Level PressureIn,VisibilityMPH,Wind Direction,Wind SpeedMPH,Gust SpeedMPH,PrecipitationIn,Events,Conditions,WindDirDegrees,DateUTC
12:56 AM,12.0,8.1,84,30.09,9.0,NW,8.1,-,N/A,,Clear,310,2012-12-23 06:56:00
1:56 AM,10.9,7.0,84,30.11,9.0,NW,9.2,-,N/A,,Clear,320,2012-12-23 07:56:00
2:56 AM,10.9,7.0,84,30.10,10.0,North,9.2,-,N/A,,Clear,350,2012-12-23 08:56:00
3:56 AM,10.0,6.1,84,30.12,10.0,NW,8.1,-,N/A,,Clear,310,2012-12-23 09:56:00
4:56 AM,9.0,5.0,84,30.12,10.0,NW,6.9,-,N/A,,Clear,310,2012-12-23 10:56:00
5:56 AM,8.1,3.9,83,30.11,10.0,North,4.6,-,N/A,,Clear,350,2012-12-23 11:56:00
6:56 AM,8.1,3.9,83,30.10,10.0,NNW,6.9,-,N/A,,Clear,340,2012-12-23 12:56:00
7:56 AM,7.0,3.0,84,30.10,10.0,NNW,3.5,-,N/A,,Clear,330,2012-12-23 13:56:00
8:56 AM,9.0,3.9,80,30.11,10.0,NW,3.5,-,N/A,,Clear,310,2012-12-23 14:56:00
9:56 AM,10.9,6.1,81,30.12,10.0,NNW,4.6,-,N/A,,Clear,330,2012-12-23 15:56:00
10:56 AM,14.0,7.0,74,30.11,10.0,NNE,4.6,-,N/A,,Clear,20,2012-12-23 16:56:00
11:56 AM,15.1,9.0,77,30.08,10.0,Calm,Calm,-,N/A,,Clear,0,2012-12-23 17:56:00
12:56 PM,18.0,10.9,74,30.06,10.0,Calm,Calm,-,N/A,,Clear,0,2012-12-23 18:56:00
1:56 PM,19.0,12.0,74,30.05,10.0,Calm,Calm,-,N/A,,Clear,0,2012-12-23 19:56:00
2:56 PM,19.9,12.0,71,30.04,9.0,Calm,Calm,-,N/A,,Clear,0,2012-12-23 20:56:00
3:56 PM,21.0,12.9,71,30.02,10.0,Calm,Calm,-,N/A,,Clear,0,2012-12-23 21:56:00
4:56 PM,19.0,12.0,74,30.06,10.0,NW,10.4,-,N/A,,Clear,320,2012-12-23 22:56:00
5:56 PM,17.1,10.9,77,30.06,10.0,NW,5.8,-,N/A,,Clear,320,2012-12-23 23:56:00
6:56 PM,14.0,9.0,80,30.07,9.0,NNW,4.6,-,N/A,,Clear,330,2012-12-24 00:56:00
7:56 PM,14.0,10.0,84,30.09,8.0,NW,3.5,-,N/A,,Clear,310,2012-12-24 01:56:00
8:51 PM,14.0,10.4,86,30.02,7.0,NW,6.9,-,N/A,,Mostly Cloudy,310,2012-12-24 02:51:00
8:56 PM,14.0,10.0,84,30.11,7.0,NW,8.1,-,N/A,,Mostly Cloudy,320,2012-12-24 02:56:00
9:56 PM,12.0,8.1,84,30.11,10.0,NNW,15.0,-,N/A,,Mostly Cloudy,330,2012-12-24 03:56:00
10:56 PM,12.0,7.0,80,30.12,5.0,NW,11.5,-,0.00,Snow,Light Snow,310,2012-12-24 04:56:00
11:56 PM,10.9,5.0,77,30.11,10.0,NW,11.5,-,0.00,,Scattered Clouds,320,2012-12-24 05:56:00